Regional Weather Roundup
Issued by NWS

Home | Current Version | Previous Version | Text Only | Print | Product List | Glossary On
Versions: 1 2 3 4 5 6 7 8 9 10 11 12 13 14 15 16 17 18 19 20 21 22 23 24 25 26 27 28 29 30 31 32 33 34 35 36 37 38 39 40 41 42 43 44 45 46 47 48 49 50
000
ASUS43 KMPX 011101
RWRMN
WEATHER ROUNDUP FOR MINNESOTA
NATIONAL WEATHER SERVICE TWIN CITIES/CHANHASSEN MN
600 AM CDT WED APR 01 2015


NOTE: "FAIR" INDICATES FEW OR NO CLOUDS BELOW 12,000 FEET WITH NO
SIGNIFICANT WEATHER AND/OR OBSTRUCTIONS TO VISIBILITY. N/A MEANS
CURRENT SKY AND/OR WEATHER CONDITIONS ARE NOT AVAILABLE.

MNZ060>063-068>070-011200-
   Twin Cities Metro

CITY           SKY/WX    TMP DP  RH WIND       PRES   REMARKS
TWIN CITIES    CLEAR     44  32  62 SE10      29.79F
ST PAUL        CLEAR     45  32  60 SE13      29.81F
CRYSTAL        CLEAR     49  32  52 SE8       29.77F
BLAINE         CLEAR     46  30  53 E8        29.78F
LAKEVILLE      CLEAR     43  34  70 SE5       29.79F
EDEN PRAIRIE   CLEAR     47  33  58 SE10      29.77F
SOUTH ST PAUL  CLEAR     45  32  60 SE3       29.80F
LAKE ELMO      FAIR      43  30  61 E6        29.82F
$$
MNZ001>005-007-008-013>017-022>024-027-028-011200-
   Northwest Minnesota

CITY           SKY/WX    TMP DP  RH WIND       PRES   REMARKS
BEMIDJI        PTCLDY    39  28  64 SE16      29.66F
HALLOCK        MOCLDY    46  28  49 SE17      29.53F
ROSEAU         PTCLDY    43  30  61 SE10      29.61F
WARROAD        MOCLDY    36  30  80 E12       29.64F
THIEF RVR FALL PTCLDY    43  28  56 E16       29.56F
CROOKSTON      PTCLDY    46  30  53 SE16      29.53F
FOSSTON        PTCLDY    45  28  53 SE16G30   29.58F
DETROIT LAKES  PTCLDY    45  30  57 SE16      29.61S
MOORHEAD       MOCLDY    52  34  50 SE16G24   29.53F
PARK RAPIDS    PTCLDY    45  25  45 SE15G24   29.65F
MAHNOMEN       FAIR      47  28  45 SE23G31   29.56F
$$
MNZ006-009>011-018-025>026-011200-
   North Central Minnesota

CITY           SKY/WX    TMP DP  RH WIND       PRES   REMARKS
BAUDETTE       MOCLDY    37  28  70 SE14      29.68F
FLAG ISLAND    MOCLDY    37  28  70 E13G18    29.67F
INTL FALLS     CLOUDY    34  29  82 SE10      29.78F WCI  26
WASKISH        MOCLDY    39  30  70 SE14      29.68F
BIG FORK       CLOUDY    36  30  80 SE9       29.77F
LONGVILLE      PTCLDY    37  28  70 SE6       29.73F
GRAND RAPIDS   MOCLDY    34  27  75 SE14      29.77F WCI  24
CRANE LAKE     MOCLDY    30  28  93 SE2       29.86F
ORR            MOCLDY    32  28  86 SE7       29.79F WCI  26
COOK           PTCLDY    34  30  86 SE6       29.83F WCI  29
WALKER         FAIR      40  27  61 E7        29.70F
$$
MNZ012-019>021-037-011200-
   Northeast Minnesota

CITY           SKY/WX    TMP DP  RH WIND       PRES   REMARKS
DULUTH         FOG       30  28  92 E16       29.86F VSB 1/2 WCI  19
ELY            MOCLDY    30  27  86 SE6       29.87F WCI  24
HIBBING        MOCLDY    33  28  81 SE10      29.83F WCI  25
EVELETH        PTCLDY    32  30  93 E5        29.85F WCI  27
DULUTH HARBOR  CLOUDY    32  30  93 E18       29.92F WCI  20
TWO HARBORS    CLOUDY    32  27  80 NE10G16   29.90F WCI  24
SILVER BAY     CLOUDY    30  28  93 NE5       29.91F WCI  25
GRAND MARAIS     N/A     31  28  89 E6        29.99R WCI  25
G MARAIS ARPRT FOG       25  21  86 E3        29.93S VSB<1/4
$$
MNZ029>031-032-039>041-046>048-054>057-064-011200-
   West Central Minnesota

CITY           SKY/WX    TMP DP  RH WIND       PRES   REMARKS
FERGUS FALLS   PTCLDY    52  28  40 SE17      29.59F
WHEATON        CLEAR     43  34  70 SE18      29.57F
MORRIS         CLEAR     45  36  70 SE18      29.59F
ALEXANDRIA     PTCLDY    44  32  62 SE15      29.65F
ELBOW LAKE     FAIR      48  33  55 SE18G24   29.58F
WADENA         PTCLDY    45  28  53 SE14      29.65F
GLENWOOD       CLEAR     43  34  70 SE9       29.66F
APPLETON       PTCLDY    45  34  65 SE10      29.61F
BENSON         PTCLDY    46  34  61 S12       29.64F
ORTONVILLE     PTCLDY    43  32  65 SE10      29.58F
MADISON        PTCLDY    61  30  31 S18       29.58F
WILLMAR        FAIR      45  34  65 SE12      29.69S
$$
MNZ033>034-036-042>043-049>051-058-059-011200-
   Central Minnesota

CITY           SKY/WX    TMP DP  RH WIND       PRES   REMARKS
ST CLOUD       PTCLDY    47  29  49 E9        29.73F
SAUK CENTRE    FAIR      43  33  66 SE13      29.67F
PAYNESVILLE    CLEAR     43  32  66 E14       29.69F
AITKIN         PTCLDY    39  30  70 E8        29.75F
PINE RIVER     PTCLDY    37  28  70 SE13      29.75F
BRAINERD       PTCLDY    39  27  62 SE8G17    29.73F
STAPLES        PTCLDY    45  25  45 SE7       29.68F
LONG PRAIRIE   FAIR      43  30  61 SE9G18    29.68F
LITTLE FALLS   MOCLDY    45  27  49 SE10      29.72S
LITCHFIELD     CLEAR     46  36  66 CALM      29.72F
MAPLE LAKE     PTCLDY    43  33  68 SE6       29.74F
$$
MNZ037-044-045-052-053-011200-
   East Central Minnesota

CITY           SKY/WX    TMP DP  RH WIND       PRES   REMARKS
PRINCETON      PTCLDY    45  27  49 E8        29.76F
MORA           CLEAR     36  28  75 E5        29.81F
CAMBRIDGE      CLEAR     46  30  53 SE10G17   29.76F
RUSH CITY      PTCLDY    40  30  65 E7        29.81F
MOOSE LAKE     PTCLDY    32  30  93 CALM      29.82F
HINCKLEY       FAIR      37  32  81 E9        29.82F
CLOQUET        CLOUDY    30  30 100 E9        29.85F WCI  22
MCGREGOR       PTCLDY    34  32  93 E10       29.80F WCI  26
$$
MNZ071>073-080-081-089-090-097-098-011200-
   Southwest Minnesota

CITY           SKY/WX    TMP DP  RH WIND       PRES   REMARKS
MONTEVIDEO     PTCLDY    46  34  61 S8        29.65S
GRANITE FALLS  MOCLDY    46  32  57 SE12      29.66F
CANBY          MOCLDY    60  30  32 S22G29    29.60F
MARSHALL       MOCLDY    57  30  35 SW28G36   29.64F
REDWOOD FALLS  MOCLDY    46  33  60 SE13      29.68F
OLIVIA         MOCLDY    43  32  65 SE9       29.68F
PIPESTONE      CLEAR     54  30  40 S20       29.67F
WINDOM         PTCLDY    54  30  40 S14       29.71F
WORTHINGTON    CLEAR     52  28  40 S17       29.73F
JACKSON        CLEAR     50  30  46 S13       29.75S
TRACY          MOCLDY    58  32  37 S20G26    29.67F
SLAYTON        CLEAR     52  26  36 S20G25    29.70S
$$
MNZ065>067-074>077-082>085-091>093-011200-
   South Central Minnesota

CITY           SKY/WX    TMP DP  RH WIND       PRES   REMARKS
MANKATO        CLEAR     46  34  61 S12       29.77S
NEW ULM        MOCLDY    48  32  53 S13       29.72F
ST JAMES       MOCLDY    45  34  65 SE10      29.75S
FAIRMONT       PTCLDY    41  28  60 S10       29.76S
GLENCOE        CLEAR     47  37  70 SE7       29.74F
FARIBAULT      CLEAR     48  36  61 SE9       29.79F
OWATONNA       CLEAR     48  34  57 SE15      29.80F
WASECA         CLEAR     45  34  65 SE13      29.80S
ALBERT LEA     CLEAR     45  34  65 S10       29.81F
$$
MNZ078>079-086>088-094>096-011200-
   Southeast Minnesota

CITY           SKY/WX    TMP DP  RH WIND       PRES   REMARKS
ROCHESTER      CLEAR     41  32  70 S12       29.85F
RED WING       CLEAR     45  30  57 E8        29.84S
STANTON        CLEAR     50  34  54 S12G18    29.78F
DODGE CENTER   PTCLDY    39  34  81 S13       29.82S
WINONA         CLEAR     37  32  81 S3        29.89F
AUSTIN         CLEAR     45  34  65 S6        29.83S
PRESTON        CLEAR     42  32  68 S8        29.87F
$$
ABBREVIATIONS USED IN REMARKS
   TC - TEMPERATURES IN CELSIUS
  WCI - WIND CHILL INDEX
   HX - HEAT INDEX
  VSB - VISIBILITY
$$


USA.gov is the U.S. government's official web portal to all federal, state and local government web resources and services.